| time (UTC) | temp C | wind direction | speed KPH | gust KPH | rain 1hr cm | rain 24hr cm | rain mn cm | humidity % | barometer mb |
| 20260502152048 | 18 | 351 | 3.2 | 4.8 | 0.00 | 6.55 | 0.41 | 72 | |
| 20260502151549 | 18 | 322 | 3.2 | 4.8 | 0.00 | 6.58 | 0.41 | 73 | |
| 20260502151048 | 18 | 340 | 4.8 | 4.8 | 0.00 | 6.58 | 0.41 | 75 | |
| 20260502150549 | 18 | 331 | 3.2 | 4.8 | 0.00 | 6.58 | 0.41 | 75 | |
| 20260502130551 | 13 | 288 | 1.6 | 1.6 | 0.00 | 7.01 | 0.41 | 93 | |
| 20260502123551 | 12 | 311 | 1.6 | 1.6 | 0.00 | 7.29 | 0.41 | 96 | |
| 20260502123053 | 12 | 296 | 1.6 | 3.2 | 0.00 | 7.32 | 0.41 | 97 | |
| 20260502122551 | 11 | 325 | 1.6 | 1.6 | 0.00 | 7.34 | 0.41 | 97 | |
| 20260502122051 | 11 | 293 | 1.6 | 1.6 | 0.00 | 7.34 | 0.41 | 97 | |
| 20260502121551 | 11 | 279 | 1.6 | 3.2 | 0.00 | 7.34 | 0.41 | 97 | |
| 20260502121052 | 11 | 303 | 1.6 | 1.6 | 0.00 | 7.34 | 0.41 | 97 | |
| 20260502120612 | 11 | 282 | 1.6 | 1.6 | 0.00 | 7.37 | 0.41 | 97 | |
| 20260502115552 | 11 | 135 | 0.0 | 0.0 | 0.00 | 7.39 | 0.41 | 97 | |
| 20260502115132 | 11 | 347 | 0.0 | 0.0 | 0.00 | 7.39 | 0.41 | 97 | |
| 20260502114552 | 11 | 332 | 0.0 | 1.6 | 0.00 | 7.39 | 0.41 | 97 | |
| 20260502114052 | 11 | 328 | 1.6 | 1.6 | 0.00 | 7.39 | 0.41 | 97 | |
| 20260502113612 | 11 | 303 | 0.0 | 1.6 | 0.00 | 7.39 | 0.41 | 97 | |
| 20260502113052 | 11 | 335 | 0.0 | 1.6 | 0.00 | 7.39 | 0.41 | 97 | |
| 20260502112552 | 11 | 322 | 0.0 | 1.6 | 0.00 | 7.39 | 0.41 | 97 | |
| 20260502112113 | 11 | 326 | 1.6 | 1.6 | 0.00 | 7.39 | 0.41 | 97 | |
| 20260502111613 | 11 | 321 | 0.0 | 1.6 | 0.00 | 7.39 | 0.41 | 96 | |
| 20260502111053 | 11 | 27 | 0.0 | 0.0 | 0.00 | 7.39 | 0.41 | 96 | |
| 20260502110553 | 11 | 309 | 0.0 | 0.0 | 0.00 | 7.39 | 0.41 | 96 | |
| 20260502110053 | 11 | 355 | 0.0 | 1.6 | 0.00 | 7.39 | 0.41 | 96 | |
| 20260502105553 | 12 | 7 | 0.0 | 0.0 | 0.00 | 7.39 | 0.41 | 95 | |
| 20260502105053 | 12 | 329 | 1.6 | 1.6 | 0.00 | 7.39 | 0.41 | 95 | |
| 20260502104553 | 12 | 298 | 1.6 | 1.6 | 0.00 | 7.39 | 0.41 | 95 | |
| 20260502104053 | 12 | 307 | 1.6 | 1.6 | 0.00 | 7.39 | 0.41 | 95 | |
| 20260502103553 | 12 | 318 | 0.0 | 0.0 | 0.00 | 7.42 | 0.41 | 95 | |
| 20260502103053 | 12 | 43 | 0.0 | 0.0 | 0.00 | 7.42 | 0.41 | 95 | |
| 20260502102553 | 12 | 230 | 0.0 | 1.6 | 0.00 | 7.42 | 0.41 | 95 | |
| 20260502102053 | 12 | 340 | 0.0 | 1.6 | 0.00 | 7.42 | 0.41 | 94 | |
| 20260502101553 | 12 | 292 | 0.0 | 0.0 | 0.00 | 7.42 | 0.41 | 94 | |
| 20260502101054 | 12 | 0.0 | 0.0 | 0.00 | 7.42 | 0.41 | 93 | ||
| 20260502100554 | 12 | 344 | 0.0 | 1.6 | 0.00 | 7.42 | 0.41 | 93 | |
| 20260502091055 | 13 | 350 | 0.0 | 1.6 | 0.00 | 7.54 | 0.41 | 91 | |
| 20260502090555 | 13 | 333 | 1.6 | 3.2 | 0.00 | 7.67 | 0.41 | 91 | |
| 20260502071057 | 12 | 321 | 0.0 | 0.0 | 0.00 | 10.19 | 0.41 | 95 | |
| 20260502070557 | 12 | 18 | 1.6 | 1.6 | 0.00 | 10.21 | 0.41 | 94 | |
| 20260502070057 | 13 | 281 | 0.0 | 1.6 | 0.00 | 10.29 | 0.41 | 94 | |
| 20260502065637 | 13 | 317 | 3.2 | 4.8 | 0.00 | 10.34 | 0.41 | 94 | |
| 20260502065057 | 13 | 312 | 4.8 | 4.8 | 0.00 | 10.36 | 0.41 | 94 | |
| 20260502064557 | 13 | 313 | 4.8 | 4.8 | 0.00 | 10.36 | 0.41 | 94 | |
| 20260502064057 | 13 | 311 | 4.8 | 4.8 | 0.00 | 10.36 | 0.41 | 94 | |
| 20260502063557 | 13 | 308 | 3.2 | 4.8 | 0.00 | 10.39 | 0.41 | 94 | |
| 20260502063058 | 13 | 314 | 3.2 | 4.8 | 0.00 | 10.39 | 0.41 | 94 | |
| 20260502062558 | 13 | 307 | 4.8 | 4.8 | 0.00 | 10.39 | 0.41 | 94 | |
| 20260502062058 | 13 | 314 | 4.8 | 4.8 | 0.00 | 10.39 | 0.41 | 94 | |
| 20260502061058 | 13 | 307 | 4.8 | 4.8 | 0.00 | 10.39 | 0.41 | 95 | |
| 20260502060558 | 13 | 309 | 4.8 | 4.8 | 0.00 | 10.39 | 0.41 | 95 | |
| 20260502060058 | 13 | 310 | 4.8 | 4.8 | 0.00 | 10.39 | 0.41 | 95 | |
| 20260502055618 | 13 | 291 | 3.2 | 4.8 | 0.00 | 10.39 | 0.41 | 96 | |
| 20260502055058 | 13 | 309 | 4.8 | 4.8 | 0.00 | 10.39 | 0.41 | 96 | |
| 20260502054558 | 13 | 311 | 4.8 | 4.8 | 0.00 | 10.39 | 0.41 | 97 | |
| 20260502054058 | 13 | 308 | 4.8 | 4.8 | 0.00 | 10.39 | 0.41 | 97 | |
| 20260502053618 | 13 | 317 | 3.2 | 4.8 | 0.00 | 10.39 | 0.41 | 98 | |
| 20260502053058 | 13 | 309 | 4.8 | 4.8 | 0.00 | 10.39 | 0.41 | 98 | |
| 20260502052559 | 13 | 308 | 3.2 | 4.8 | 0.00 | 10.39 | 0.41 | 98 | |
| 20260502052119 | 13 | 315 | 4.8 | 4.8 | 0.00 | 10.39 | 0.41 | 98 | |
| 20260502051619 | 13 | 304 | 4.8 | 4.8 | 0.00 | 10.46 | 0.41 | 99 | |
| 20260502051059 | 13 | 307 | 4.8 | 4.8 | 0.00 | 10.46 | 0.41 | 99 | |
| 20260502050559 | 13 | 311 | 3.2 | 4.8 | 0.00 | 10.46 | 0.41 | 99 | |
| 20260502050119 | 13 | 315 | 3.2 | 4.8 | 0.00 | 10.46 | 0.41 | 99 | |
| 20260502045619 | 13 | 302 | 3.2 | 4.8 | 0.00 | 10.46 | 0.41 | 99 | |
| 20260502045059 | 13 | 4 | 1.6 | 3.2 | 0.00 | 10.46 | 0.41 | 99 | |
| 20260502044559 | 13 | 321 | 1.6 | 3.2 | 0.00 | 10.46 | 0.41 | 99 | |
| 20260502044059 | 13 | 354 | 3.2 | 6.4 | 0.00 | 10.46 | 0.41 | 99 | |
| 20260502043559 | 13 | 354 | 3.2 | 4.8 | 0.00 | 10.67 | 0.41 | 99 | |
| 20260502043059 | 13 | 339 | 1.6 | 3.2 | 0.00 | 11.13 | 0.41 | 99 | |
| 20260502042600 | 13 | 305 | 1.6 | 1.6 | 0.00 | 11.20 | 0.41 | 99 | |
| 20260502042059 | 13 | 348 | 3.2 | 3.2 | 0.00 | 11.20 | 0.41 | 99 | |
| 20260502041600 | 13 | 316 | 3.2 | 6.4 | 0.00 | 11.20 | 0.41 | 99 | |
| 20260502041100 | 13 | 293 | 3.2 | 3.2 | 0.00 | 11.20 | 0.41 | 99 | |
| 20260502040600 | 13 | 290 | 3.2 | 3.2 | 0.00 | 11.20 | 0.41 | 99 | |
| 20260502040100 | 13 | 282 | 4.8 | 6.4 | 0.00 | 11.20 | 0.41 | 99 | |
| 20260502035620 | 13 | 264 | 6.4 | 8.0 | 0.00 | 11.20 | 0.41 | 99 | |
| 20260502035100 | 13 | 248 | 9.7 | 9.7 | 0.00 | 11.20 | 0.41 | 99 | |
| 20260502034600 | 13 | 255 | 8.0 | 9.7 | 0.00 | 11.20 | 0.41 | 99 | |
| 20260502034100 | 13 | 243 | 8.0 | 11.3 | 0.00 | 11.20 | 0.41 | 99 | |
| 20260502033600 | 13 | 246 | 6.4 | 8.0 | 0.00 | 11.20 | 0.41 | 100 | |
| 20260502033121 | 13 | 237 | 9.7 | 12.9 | 0.00 | 11.20 | 0.41 | 100 | |
| 20260502032601 | 13 | 242 | 8.0 | 11.3 | 0.00 | 11.20 | 0.41 | 100 | |
| 20260502032101 | 13 | 263 | 6.4 | 9.7 | 0.00 | 11.20 | 0.41 | 100 | |
| 20260502031602 | 13 | 266 | 3.2 | 4.8 | 0.00 | 11.20 | 0.41 | 100 | |
| 20260502031101 | 13 | 281 | 3.2 | 4.8 | 0.00 | 11.20 | 0.41 | 100 | |
| 20260502030601 | 13 | 280 | 3.2 | 3.2 | 0.00 | 11.20 | 0.41 | 100 | |
| 20260502030101 | 13 | 291 | 1.6 | 3.2 | 0.00 | 11.20 | 0.41 | 100 | |
| 20260502025641 | 13 | 296 | 1.6 | 1.6 | 0.00 | 11.20 | 0.41 | 100 | |
| 20260502025121 | 13 | 303 | 1.6 | 1.6 | 0.00 | 11.20 | 0.41 | 99 | |
| 20260502024601 | 13 | 304 | 1.6 | 3.2 | 0.03 | 11.20 | 0.41 | 99 | |
| 20260502024101 | 13 | 321 | 3.2 | 3.2 | 0.03 | 11.20 | 0.41 | 100 | |
| 20260502023621 | 13 | 314 | 3.2 | 3.2 | 0.03 | 11.20 | 0.41 | 100 | |
| 20260502023101 | 13 | 315 | 3.2 | 3.2 | 0.08 | 11.20 | 0.41 | 99 | |
| 20260502022601 | 13 | 314 | 3.2 | 3.2 | 0.10 | 11.20 | 0.41 | 99 | |
| 20260502022101 | 13 | 315 | 3.2 | 3.2 | 0.13 | 11.20 | 0.41 | 99 | |
| 20260502021601 | 13 | 315 | 3.2 | 3.2 | 0.13 | 11.20 | 0.41 | 99 | |
| 20260502021101 | 14 | 314 | 3.2 | 3.2 | 0.13 | 11.20 | 0.41 | 100 | |
| 20260502020601 | 14 | 313 | 3.2 | 4.8 | 0.15 | 11.20 | 0.41 | 99 | |
| 20260502015602 | 14 | 304 | 3.2 | 4.8 | 0.18 | 11.20 | 0.41 | 99 | |
| 20260502015102 | 14 | 314 | 3.2 | 4.8 | 0.18 | 11.18 | 0.41 | 99 | |
| 20260502014602 | 14 | 314 | 3.2 | 3.2 | 0.20 | 11.18 | 0.41 | 99 | |
| 20260502014102 | 15 | 314 | 3.2 | 3.2 | 0.25 | 11.18 | 0.41 | 99 | |
| 20260502013602 | 15 | 314 | 3.2 | 3.2 | 0.23 | 11.15 | 0.38 | 99 | |
| 20260502013102 | 15 | 314 | 3.2 | 3.2 | 0.20 | 11.13 | 0.36 | 99 | |
| 20260502012602 | 15 | 309 | 3.2 | 3.2 | 0.18 | 11.10 | 0.33 | 99 | |
| 20260502012103 | 15 | 306 | 3.2 | 3.2 | 0.15 | 11.05 | 0.28 | 99 | |
| 20260502011602 | 15 | 300 | 3.2 | 3.2 | 0.15 | 11.05 | 0.28 | 99 | |
| 20260502011103 | 15 | 295 | 3.2 | 4.8 | 0.15 | 11.05 | 0.28 | 99 | |
| 20260502010603 | 15 | 304 | 3.2 | 3.2 | 0.15 | 11.05 | 0.25 | 99 | |
| 20260502005603 | 15 | 287 | 1.6 | 3.2 | 0.25 | 11.02 | 0.25 | 99 | |
| 20260502005104 | 15 | 335 | 3.2 | 4.8 | 0.25 | 11.00 | 0.23 | 99 | |
| 20260502004603 | 15 | 311 | 3.2 | 4.8 | 0.20 | 10.97 | 0.18 | 99 | |
| 20260502004104 | 15 | 310 | 3.2 | 3.2 | 0.20 | 10.92 | 0.15 | 99 | |
| 20260502003603 | 15 | 322 | 3.2 | 3.2 | 0.25 | 10.92 | 0.15 | 99 | |
| 20260502003103 | 15 | 127 | 1.6 | 3.2 | 0.28 | 10.92 | 0.15 | 99 | |
| 20260502002603 | 15 | 137 | 1.6 | 1.6 | 0.36 | 10.92 | 0.15 | 99 | |
| 20260502002123 | 15 | 137 | 3.2 | 3.2 | 0.36 | 10.92 | 0.13 | 100 | |
| 20260502001603 | 15 | 137 | 1.6 | 3.2 | 0.36 | 10.90 | 0.13 | 100 | |
| 20260502001103 | 15 | 136 | 3.2 | 3.2 | 0.33 | 10.90 | 0.10 | 100 | |
| 20260502000604 | 15 | 142 | 3.2 | 3.2 | 0.33 | 10.87 | 0.10 | 100 | |
| 20260502000104 | 15 | 271 | 4.8 | 8.0 | 0.30 | 10.85 | 0.08 | 100 | |
| 20260501235624 | 15 | 326 | 8.0 | 14.5 | 0.25 | 10.77 | 10.77 | 100 | |
| 20260501235124 | 15 | 331 | 4.8 | 4.8 | 0.30 | 10.77 | 10.77 | 100 | |
| 20260501234625 | 15 | 316 | 3.2 | 4.8 | 0.46 | 10.74 | 10.74 | 100 | |
| 20260501234104 | 15 | 332 | 6.4 | 9.7 | 0.56 | 10.72 | 10.72 | 100 | |
| 20260501233604 | 15 | 327 | 3.2 | 4.8 | 0.51 | 10.67 | 10.67 | 100 | |
| 20260501233104 | 15 | 355 | 3.2 | 4.8 | 0.48 | 10.64 | 10.64 | 100 | |
| 20260501232604 | 15 | 302 | 3.2 | 3.2 | 0.41 | 10.57 | 10.57 | 100 | |
| 20260501232104 | 15 | 292 | 3.2 | 3.2 | 0.38 | 10.54 | 10.54 | 100 | |
| 20260501231604 | 15 | 334 | 3.2 | 4.8 | 0.38 | 10.54 | 10.54 | 100 | |
| 20260501231104 | 15 | 33 | 8.0 | 8.0 | 0.38 | 10.54 | 10.54 | 100 | |
| 20260501230604 | 16 | 22 | 8.0 | 9.7 | 0.38 | 10.54 | 10.54 | 100 | |
| 20260501230104 | 16 | 14 | 9.7 | 11.3 | 0.38 | 10.54 | 10.54 | 100 | |
| 20260501225604 | 16 | 9 | 4.8 | 6.4 | 0.36 | 10.52 | 10.52 | 100 | |
| 20260501225104 | 16 | 334 | 6.4 | 8.0 | 0.30 | 10.46 | 10.46 | 100 | |
| 20260501224605 | 16 | 344 | 3.2 | 4.8 | 0.15 | 10.29 | 10.29 | 100 | |
| 20260501224105 | 16 | 316 | 3.2 | 4.8 | 0.03 | 10.19 | 10.19 | 100 | |
| 20260501223605 | 16 | 344 | 3.2 | 3.2 | 0.00 | 10.16 | 10.16 | 100 | |
| 20260501223105 | 16 | 327 | 4.8 | 6.4 | 0.00 | 10.16 | 10.16 | 100 | |
| 20260501222605 | 16 | 315 | 4.8 | 4.8 | 0.00 | 10.16 | 10.16 | 99 | |
| 20260501222125 | 16 | 314 | 4.8 | 4.8 | 0.00 | 10.16 | 10.16 | 99 | |
| 20260501221625 | 16 | 315 | 4.8 | 4.8 | 0.00 | 10.16 | 10.16 | 99 | |
| 20260501221105 | 16 | 315 | 3.2 | 4.8 | 0.00 | 10.16 | 10.16 | 99 | |
| 20260501220626 | 16 | 315 | 3.2 | 3.2 | 0.03 | 10.16 | 10.16 | 99 | |
| 20260501220106 | 16 | 314 | 3.2 | 4.8 | 0.03 | 10.16 | 10.16 | 99 | |
| 20260501215605 | 16 | 314 | 3.2 | 4.8 | 0.03 | 10.16 | 10.16 | 99 | |
| 20260501215106 | 16 | 315 | 3.2 | 3.2 | 0.08 | 10.16 | 10.16 | 99 | |
| 20260501214605 | 16 | 314 | 3.2 | 4.8 | 0.08 | 10.16 | 10.16 | 99 | |
| 20260501214106 | 16 | 315 | 3.2 | 4.8 | 0.10 | 10.16 | 10.16 | 100 | |
| 20260501213626 | 16 | 313 | 3.2 | 4.8 | 0.10 | 10.16 | 10.16 | 100 | |
| 20260501213106 | 16 | 314 | 3.2 | 4.8 | 0.10 | 10.16 | 10.16 | 100 | |
| 20260501212606 | 16 | 314 | 3.2 | 4.8 | 0.13 | 10.16 | 10.16 | 100 | |
| 20260501212106 | 16 | 313 | 3.2 | 4.8 | 0.18 | 10.16 | 10.16 | 99 | |
| 20260501211606 | 16 | 314 | 3.2 | 3.2 | 0.23 | 10.16 | 10.16 | 99 | |
| 20260501211106 | 16 | 314 | 3.2 | 3.2 | 0.43 | 10.16 | 10.16 | 99 | |
| 20260501210606 | 16 | 312 | 3.2 | 3.2 | 0.51 | 10.13 | 10.13 | 99 | |
| 20260501210107 | 16 | 313 | 3.2 | 3.2 | 0.56 | 10.13 | 10.13 | 99 | |
| 20260501205606 | 16 | 314 | 3.2 | 3.2 | 0.56 | 10.11 | 10.11 | 99 | |
| 20260501205107 | 16 | 312 | 3.2 | 3.2 | 0.58 | 10.08 | 10.08 | 99 | |
| 20260501204607 | 17 | 321 | 3.2 | 3.2 | 0.61 | 10.08 | 10.08 | 99 | |
| 20260501204107 | 17 | 316 | 3.2 | 3.2 | 0.58 | 10.06 | 10.06 | 99 | |
| 20260501203607 | 17 | 316 | 3.2 | 6.4 | 0.61 | 10.06 | 10.06 | 99 | |
| 20260501203107 | 17 | 318 | 4.8 | 6.4 | 0.64 | 10.06 | 10.06 | 99 | |
| 20260501202627 | 17 | 313 | 3.2 | 3.2 | 0.66 | 10.03 | 10.03 | 99 | |
| 20260501202107 | 17 | 316 | 3.2 | 3.2 | 0.64 | 9.98 | 9.98 | 99 | |
| 20260501201607 | 17 | 313 | 3.2 | 3.2 | 0.64 | 9.93 | 9.93 | 99 | |
| 20260501201127 | 17 | 314 | 3.2 | 3.2 | 0.51 | 9.73 | 9.73 | 99 | |
| 20260501200607 | 17 | 307 | 3.2 | 3.2 | 0.51 | 9.63 | 9.63 | 99 | |
| 20260501200107 | 17 | 306 | 3.2 | 3.2 | 0.46 | 9.58 | 9.58 | 99 | |
| 20260501195627 | 17 | 300 | 3.2 | 4.8 | 0.43 | 9.55 | 9.55 | 99 | |
| 20260501195108 | 17 | 337 | 3.2 | 4.8 | 0.46 | 9.53 | 9.53 | 99 | |
| 20260501194608 | 17 | 39 | 6.4 | 8.0 | 0.99 | 9.47 | 9.47 | 99 | |
| 20260501194128 | 17 | 49 | 8.0 | 8.0 | 1.07 | 9.47 | 9.47 | 99 | |
| 20260501193608 | 17 | 50 | 6.4 | 8.0 | 1.09 | 9.47 | 9.47 | 99 | |
| 20260501193108 | 17 | 51 | 6.4 | 8.0 | 1.12 | 9.42 | 9.42 | 99 | |
| 20260501192608 | 17 | 53 | 8.0 | 8.0 | 1.07 | 9.37 | 9.37 | 99 | |
| 20260501192128 | 17 | 55 | 8.0 | 8.0 | 1.04 | 9.35 | 9.35 | 99 | |
| 20260501191648 | 17 | 55 | 6.4 | 8.0 | 1.02 | 9.30 | 9.30 | 99 | |
| 20260501191108 | 17 | 57 | 6.4 | 8.0 | 0.97 | 9.19 | 9.19 | 99 | |
| 20260501190608 | 17 | 52 | 8.0 | 9.7 | 1.24 | 9.12 | 9.12 | 99 | |
| 20260501190108 | 17 | 51 | 8.0 | 8.0 | 1.83 | 9.12 | 9.12 | 99 | |
| 20260501185609 | 17 | 40 | 6.4 | 8.0 | 2.03 | 9.12 | 9.12 | 99 | |
| 20260501185129 | 17 | 37 | 6.4 | 8.0 | 2.06 | 9.07 | 9.07 | 99 | |
| 20260501184608 | 17 | 60 | 4.8 | 6.4 | 1.60 | 8.48 | 8.48 | 99 | |
| 20260501184109 | 17 | 31 | 3.2 | 4.8 | 1.55 | 8.41 | 8.41 | 99 | |
| 20260501183609 | 17 | 40 | 4.8 | 6.4 | 1.52 | 8.36 | 8.36 | 99 | |
| 20260501183149 | 17 | 20 | 1.6 | 3.2 | 2.01 | 8.31 | 8.31 | 99 | |
| 20260501182610 | 17 | 39 | 4.8 | 6.4 | 2.64 | 8.31 | 8.31 | 99 | |
| 20260501182109 | 17 | 36 | 8.0 | 12.9 | 2.79 | 8.31 | 8.31 | 99 | |
| 20260501181609 | 17 | 41 | 9.7 | 9.7 | 2.79 | 8.28 | 8.28 | 99 | |
| 20260501181109 | 17 | 2 | 6.4 | 9.7 | 2.79 | 8.26 | 8.26 | 99 | |
| 20260501180609 | 17 | 343 | 4.8 | 6.4 | 2.44 | 7.90 | 7.90 | 99 | |
| 20260501180109 | 17 | 336 | 4.8 | 4.8 | 1.85 | 7.29 | 7.29 | 99 | |
| 20260501175609 | 17 | 336 | 4.8 | 4.8 | 1.68 | 7.09 | 7.09 | 99 | |
| 20260501175109 | 17 | 355 | 3.2 | 4.8 | 1.57 | 7.01 | 7.01 | 99 | |
| 20260501174610 | 17 | 21 | 4.8 | 4.8 | 1.45 | 6.88 | 6.88 | 99 | |
| 20260501174110 | 17 | 358 | 6.4 | 6.4 | 1.45 | 6.86 | 6.86 | 99 | |
| 20260501173630 | 17 | 328 | 6.4 | 9.7 | 1.42 | 6.83 | 6.83 | 100 | |
| 20260501173150 | 17 | 349 | 4.8 | 8.0 | 0.86 | 6.27 | 6.27 | 100 | |
| 20260501172610 | 17 | 320 | 3.2 | 4.8 | 0.23 | 5.64 | 5.64 | 100 | |
| 20260501172110 | 17 | 320 | 3.2 | 4.8 | 0.10 | 5.51 | 5.51 | 100 | |
| 20260501171610 | 17 | 327 | 4.8 | 4.8 | 0.10 | 5.49 | 5.49 | 100 | |
| 20260501171130 | 17 | 338 | 3.2 | 4.8 | 0.08 | 5.46 | 5.46 | 100 | |
| 20260501170610 | 16 | 323 | 3.2 | 3.2 | 0.13 | 5.44 | 5.44 | 100 | |
| 20260501170110 | 16 | 328 | 3.2 | 4.8 | 0.13 | 5.44 | 5.44 | 100 | |
| 20260501165610 | 17 | 336 | 3.2 | 4.8 | 0.23 | 5.44 | 5.44 | 100 | |
| 20260501165131 | 17 | 59 | 3.2 | 3.2 | 0.36 | 5.44 | 5.44 | 100 | |
| 20260501164610 | 17 | 138 | 3.2 | 3.2 | 0.61 | 5.44 | 5.44 | 100 | |
| 20260501164110 | 17 | 131 | 1.6 | 3.2 | 0.71 | 5.41 | 5.41 | 100 | |
| 20260501163610 | 17 | 115 | 4.8 | 4.8 | 0.74 | 5.41 | 5.41 | 100 | |
| 20260501163111 | 17 | 34 | 3.2 | 4.8 | 0.76 | 5.41 | 5.41 | 100 | |
| 20260501162112 | 17 | 311 | 3.2 | 4.8 | 0.76 | 5.41 | 5.41 | 100 | |
| 20260501161611 | 17 | 333 | 4.8 | 6.4 | 0.76 | 5.38 | 5.38 | 100 | |
| 20260501161111 | 17 | 321 | 3.2 | 4.8 | 0.76 | 5.36 | 5.36 | 100 | |
| 20260501160611 | 17 | 334 | 3.2 | 3.2 | 0.71 | 5.33 | 5.33 | 100 | |
| 20260501160111 | 17 | 309 | 3.2 | 3.2 | 0.69 | 5.31 | 5.31 | 100 | |
| 20260501155611 | 17 | 328 | 3.2 | 3.2 | 0.58 | 5.21 | 5.21 | 100 | |
| 20260501155111 | 17 | 311 | 1.6 | 3.2 | 0.43 | 5.05 | 5.05 | 100 | |
| 20260501154631 | 17 | 356 | 1.6 | 4.8 | 0.20 | 4.83 | 4.83 | 100 |